CZ-3C DEB, 40853

Orbit data source: Space-Track

CZ-3C DEB, 40853 is space debris in HEO originally from a launch on Fri, 24 Feb 2012 UTC launched from the Xichang Space Center, China (XSC). Debris objects in space refer to the collection of defunct objects orbiting the Earth. Examples of debris include non-operational satellites, rocket bodies, and fragments generated from explosions, collisions, or faulty payload assembly.

Loading next visibility...
Identifier
40853, 2012-008T
Orbit
HEO
Country
Flag of CNCN / PRC
Related business
Manufacturer
CALT
Mission
Spacecraft
Bus & Motor
Unknown
Mass
Unknown
Launch date (UTC)
2012-02-24 (14 years ago)
Launch vehicle
Unknown
Launch site
Xichang Space Center, China (XSC)
Object type
Payload
Rocket body
Debris
Shape & HBR
Unknown shape, 0.1 m
Radar Cross Section
Medium (>0.1 m² and <1 m²)

Expand to show TLE details & history
Last TLE update: 4 days ago

TLE from 4 days ago
0 CZ-3C DEB
1 40853U 12008T   26169.23363311 -.00000005  00000-0  45158-2 0  9998
2 40853  21.0270  42.5130 7050632 153.1678 274.3587  2.27925821 97878
Epoch: 2026-06-18T05:36Z
TLE epoch observation values (Epoch: 2026-06-18T05:36:25.900Z)
Latitude
0.00001°
Longitude
51.91103°
Altitude
26,720.644 km
Speed
2.783 km/s
True Right ascension
02h 49m 59s
True Declination
0° 00' 00"
Sunlit
Object was in daylight at epoch
Visualization orbit readout
Latitude
Unknown
Longitude
Unknown
Altitude
Unknown
Speed
Unknown
Apparent Right ascension
Unknown
Apparent Declination
Unknown
Sunlit
N/A
Visualization observer readout
Local Sidereal Time
21:39:10
Azimuth
Unknown
Elevation
Unknown
Doppler factor
Unknown
Orbital elements
Apogee altitude
35,214.807 km
Perigee altitude
816.488 km
Semi-major axis
24,393.784 km
Eccentricity
0.70506
Inclination
21.027°
RAAN
42.513°
Arg. of periapsis
153.1678°
True anomaly
206.7629°
Mean anomaly
274.3587°
Eccentric anomaly
239.53782°
Mean motion
0.56967 °/min
Orbital period
631.94 mins
BSTAR
0.0045158
Loading maneuver chart data...
Computing Atmospheric mass density...
Loading historical data...
Loading historical data...
Loading historical data...
Loading historical data...
Loading historical data...
Loading historical data...
Loading historical data...

Documentation

Showing up to 5 results
|